This demonstration page uses our WeatherBlox Daily Observations layout. Learn more.

Left ArrowRight Arrow

39.51506, -84.39828

Hourly Observations for February 4, 2018

Temp ( °F °C ) Dew Point ( °F °C ) Humidity (%) Winds ( mph kmh ) Pressure ( in mb ) Visibility ( mi km ) Precip ( " mm )
12:15 am 00:15 Cloudy 38 3.3 17 -8.2 43 43 S 9 15 29.94 1014 10 16 0.00 0.00
12:35 am 00:35 Cloudy 38 3.5 17 -8.4 42 42 SSW 9 15 29.94 1014 10 16 0.00 0.00
12:55 am 00:55 Cloudy 39 3.7 17 -8.5 41 41 SSW 9 15 29.94 1014 10 16 0.00 0.00
1:15 am 01:15 Cloudy 39 4 17 -8.5 40 40 SSW 12 19 29.94 1014 10 16 0.00 0.00
1:35 am 01:35 Cloudy 39 3.9 17 -8.3 41 41 SSW 12 19 29.94 1014 10 16 0.00 0.00
1:55 am 01:55 Cloudy 39 4.1 17 -8.1 41 41 SSW 14 22 29.91 1013 10 16 0.00 0.00
2:15 am 02:15 Cloudy 40 4.3 19 -7.3 43 43 SSW 12 19 29.91 1013 10 16 0.00 0.00
2:35 am 02:35 Cloudy 41 5.1 24 -4.3 51 51 SW 16 26 29.91 1013 10 16 0.00 0.00
2:55 am 02:55 Cloudy 41 4.8 26 -3.2 57 57 SW 16 26 29.91 1013 10 16 0.00 0.00
3:15 am 03:15 Cloudy 41 4.8 26 -3.1 57 57 SSW 13 20 29.91 1013 10 16 0.00 0.00
3:35 am 03:35 Cloudy 40 4.5 29 -1.9 64 64 SSW 25 41 29.91 1013 10 16 0.00 0.00
3:55 am 03:55 Cloudy 38 3.1 32 -0.1 80 80 SW 18 30 29.91 1013 10 16 0.00 0.00
4:15 am 04:15 Cloudy 36 2.2 33 0.4 88 88 SSW 16 26 29.94 1014 10 16 0.00 0.00
4:35 am 04:35 Cloudy 36 2.1 33 0.3 88 88 SSW 13 20 29.94 1014 10 16 0.00 0.00
4:55 am 04:55 Cloudy 35 1.9 33 0.4 90 90 SSW 13 20 29.94 1014 10 16 0.00 0.00
5:15 am 05:15 Cloudy 35 1.4 33 0.3 92 92 SSW 12 19 29.94 1014 7 11 0.00 0.00
5:35 am 05:35 Cloudy 35 1.4 33 0.4 93 93 SSW 12 19 29.91 1013 7 11 0.00 0.00
5:55 am 05:55 Cloudy 34 1.2 33 0.3 94 94 SSW 13 20 29.91 1013 5 8 0.00 0.00
6:15 am 06:15 Cloudy 34 0.9 32 0.2 95 95 SSW 9 15 29.91 1013 5 8 0.00 0.00
6:35 am 06:35 Cloudy 34 0.9 32 0.2 95 95 SSW 10 17 29.91 1013 7 11 0.01 0.25
6:55 am 06:55 Cloudy 34 1 33 0.3 95 95 S 9 15 29.91 1013 7 11 0.01 0.25
7:15 am 07:15 Cloudy 34 1.2 33 0.4 94 94 SSW 10 17 29.91 1013 10 16 0.00 0.00
7:35 am 07:35 Cloudy 35 1.4 33 0.5 94 94 SSW 13 20 29.91 1013 10 16 0.00 0.00
7:55 am 07:55 Cloudy 35 1.4 33 0.4 93 93 SSW 10 17 29.91 1013 10 16 0.00 0.00
8:15 am 08:15 Cloudy 34 1.3 33 0.4 94 94 S 10 17 29.91 1013 5 8 0.00 0.00
8:35 am 08:35 Cloudy 34 1.3 33 0.3 93 93 SSW 14 22 29.91 1013 10 16 0.00 0.00
8:55 am 08:55 Cloudy 34 1.3 33 0.3 93 93 SSW 12 19 29.91 1013 5 8 0.00 0.00
9:15 am 09:15 Cloudy 34 1.2 33 0.5 95 95 SSW 9 15 29.91 1013 2 3 0.00 0.00
9:35 am 09:35 Cloudy 34 1.1 33 0.5 96 96 SSW 10 17 29.91 1013 2 3 0.00 0.00
9:55 am 09:55 Cloudy 34 1.1 33 0.6 97 97 SSW 8 13 29.88 1012 3 5 0.00 0.00
10:15 am 10:15 Cloudy 34 1.2 33 0.6 96 96 SSW 8 13 29.88 1012 3 5 0.00 0.00
10:35 am 10:35 Cloudy 34 1.3 33 0.8 97 97 SSW 7 11 29.88 1012 4 6 0.00 0.00
10:55 am 10:55 Cloudy 35 1.5 33 0.8 95 95 SSW 7 11 29.88 1012 7 11 0.00 0.00
11:15 am 11:15 Cloudy 35 1.9 34 1.2 95 95 SW 10 17 29.88 1012 10 16 0.00 0.00
11:35 am 11:35 Cloudy 36 2.2 35 1.4 95 95 SW 10 17 29.85 1011 10 16 0.00 0.00
11:55 am 11:55 Cloudy 36 2.3 34 1.2 93 93 SW 10 17 29.85 1011 10 16 0.00 0.00
12:15 pm 12:15 Cloudy 37 2.5 35 1.5 93 93 SW 9 15 29.85 1011 10 16 0.00 0.00
12:35 pm 12:35 Cloudy 37 2.5 35 1.4 93 93 WSW 10 17 29.83 1010 10 16 0.00 0.00
12:55 pm 12:55 Cloudy 37 2.5 34 1.3 92 92 WSW 10 17 29.83 1010 10 16 0.00 0.00
1:15 pm 13:15 Cloudy 37 2.6 34 1.3 91 91 WSW 8 13 29.83 1010 10 16 0.00 0.00
1:35 pm 13:35 Cloudy 37 2.8 35 1.4 91 91 WSW 6 9 29.83 1010 10 16 0.00 0.00
1:55 pm 13:55 Cloudy 37 3 35 1.5 90 90 W 8 13 29.83 1010 10 16 0.00 0.00
2:15 pm 14:15 Cloudy 37 3 34 1.3 89 89 W 8 13 29.83 1010 10 16 0.00 0.00
2:35 pm 14:35 Cloudy 37 3 34 1.1 87 87 W 6 9 29.83 1010 10 16 0.00 0.00
2:55 pm 14:55 Cloudy 38 3.2 34 1 86 86 W 5 7 29.83 1010 10 16 0.00 0.00
3:15 pm 15:15 Cloudy 38 3.1 33 0.8 85 85 WNW 8 13 29.83 1010 10 16 0.00 0.00
3:35 pm 15:35 Cloudy 37 3 33 0.8 86 86 W 5 7 29.83 1010 10 16 0.00 0.00
3:55 pm 15:55 Cloudy 38 3.1 34 0.9 86 86 WSW 6 9 29.83 1010 10 16 0.00 0.00
4:15 pm 16:15 Cloudy 37 2.9 34 0.9 87 87 WSW 6 9 29.85 1011 10 16 0.00 0.00
4:35 pm 16:35 Cloudy 37 2.8 34 1 88 88 SW 8 13 29.85 1011 10 16 0.00 0.00
4:55 pm 16:55 Cloudy 37 2.7 34 1 89 89 SW 8 13 29.85 1011 10 16 0.00 0.00
5:15 pm 17:15 Cloudy 37 2.7 34 1.1 89 89 WSW 7 11 29.85 1011 10 16 0.00 0.00
5:35 pm 17:35 Cloudy 37 2.6 34 1.1 90 90 WSW 8 13 29.85 1011 7 11 0.00 0.00
5:55 pm 17:55 Cloudy 37 2.7 34 0.9 88 88 W 10 17 29.88 1012 7 11 0.00 0.00
6:15 pm 18:15 Cloudy 34 1.2 31 -0.5 89 89 NNW 17 28 29.91 1013 7 11 0.00 0.00
6:35 pm 18:35 Cloudy 32 0.1 29 -1.4 90 90 NW 18 30 29.94 1014 7 11 0.00 0.00
6:55 pm 18:55 Cloudy 31 -0.4 28 -2.1 88 88 NW 17 28 29.97 1015 10 16 0.00 0.00
7:15 pm 19:15 Cloudy 30 -1.2 27 -3 88 88 NW 17 28 29.97 1015 5 8 0.00 0.00
7:35 pm 19:35 Cloudy 29 -1.8 26 -3.3 90 90 NW 16 26 30.00 1016 2 3 0.00 0.00
7:50 pm 19:50 Cloudy 28 -2.5 23 -4.8 84 84 NW 15 24 30.03 1017 4 6 0.00 0.00
8:15 pm 20:15 Cloudy 26 -3.1 23 -5.2 86 86 NNW 15 24 30.06 1018 3 5 0.00 0.00
8:35 pm 20:35 Cloudy 25 -3.9 20 -6.6 82 82 NNW 17 28 30.06 1018 5 8 0.00 0.00
8:55 pm 20:55 Cloudy 24 -4.6 20 -6.9 84 84 NNW 14 22 30.09 1019 3 4 0.00 0.00
9:15 pm 21:15 Mostly Cloudy 24 -4.5 18 -7.9 77 77 NNW 18 30 30.09 1019 10 16 0.00 0.00
9:30 pm 21:30 Cloudy 24 -4.6 17 -8.3 76 76 NNW 14 22 30.09 1019 10 16 0.00 0.00
9:55 pm 21:55 Cloudy 24 -4.6 18 -7.7 79 79 NNW 10 17 30.12 1020 10 16 0.00 0.00
10:15 pm 22:15 Cloudy 23 -4.9 16 -8.9 74 74 NNW 18 30 30.15 1021 10 16 0.00 0.00
10:35 pm 22:35 Cloudy 22 -5.4 15 -9.4 74 74 NNW 14 22 30.15 1021 10 16 0.00 0.00
10:55 pm 22:55 Partly Cloudy 22 -5.8 14 -9.8 74 74 NNW 12 19 30.18 1022 10 16 0.00 0.00
11:15 pm 23:15 Partly Cloudy 21 -6.2 13 -10.4 72 72 N 12 19 30.21 1023 10 16 0.00 0.00
11:35 pm 23:35 Clear 20 -6.5 12 -11.2 70 70 N 13 20 30.24 1024 10 16 0.00 0.00
11:55 pm 23:55 Clear 20 -6.9 11 -11.4 71 71 N 14 22 30.24 1024 10 16 0.00 0.00

Powered by AerisWeather